TimeMDT,TemperatureF,Dew PointF,Humidity,Sea Level PressureIn,VisibilityMPH,Wind Direction,Wind SpeedMPH,Gust SpeedMPH,PrecipitationIn,Events,Conditions,WindDirDegrees,DateUTC
12:53 AM,60.1,39.9,47,29.86,10.0,Calm,Calm,-,N/A,,Clear,0,2013-05-15 06:53:00
1:53 AM,61.0,39.9,46,29.84,10.0,Calm,Calm,-,N/A,,Clear,0,2013-05-15 07:53:00
2:53 AM,55.9,41.0,57,29.88,10.0,Calm,Calm,-,N/A,,Clear,0,2013-05-15 08:53:00
3:53 AM,55.0,41.0,59,29.86,10.0,SSE,8.1,-,N/A,,Clear,150,2013-05-15 09:53:00
4:53 AM,51.1,39.9,66,29.89,10.0,SSE,4.6,-,N/A,,Clear,150,2013-05-15 10:53:00
5:53 AM,51.1,39.9,66,29.89,10.0,SE,5.8,-,N/A,,Clear,130,2013-05-15 11:53:00
6:53 AM,51.1,41.0,68,29.91,10.0,ESE,4.6,-,N/A,,Clear,120,2013-05-15 12:53:00
7:53 AM,57.0,39.9,53,29.89,10.0,East,5.8,-,N/A,,Clear,80,2013-05-15 13:53:00
8:53 AM,60.1,39.9,47,29.89,10.0,ENE,4.6,-,N/A,,Clear,70,2013-05-15 14:53:00
9:53 AM,62.1,39.9,44,29.89,10.0,Calm,Calm,-,N/A,,Clear,0,2013-05-15 15:53:00
10:53 AM,64.0,39.9,41,29.88,10.0,Calm,Calm,-,N/A,,Mostly Cloudy,0,2013-05-15 16:53:00
11:53 AM,70.0,41.0,35,29.83,10.0,ESE,3.5,-,N/A,,Clear,110,2013-05-15 17:53:00
12:53 PM,70.0,42.1,36,29.81,10.0,South,4.6,-,N/A,,Clear,180,2013-05-15 18:53:00
1:53 PM,72.0,43.0,35,29.76,10.0,East,5.8,-,N/A,,Clear,90,2013-05-15 19:53:00
2:53 PM,73.0,41.0,31,29.77,10.0,North,3.5,-,N/A,,Partly Cloudy,360,2013-05-15 20:53:00
3:53 PM,71.1,41.0,34,29.78,10.0,NW,23.0,40.3,N/A,,Partly Cloudy,320,2013-05-15 21:53:00
4:53 PM,72.0,39.9,31,29.78,10.0,NW,15.0,20.7,0.00,,Mostly Cloudy,310,2013-05-15 22:53:00
5:53 PM,73.9,39.0,28,29.76,10.0,North,5.8,-,N/A,,Clear,350,2013-05-15 23:53:00
6:53 PM,71.1,39.0,31,29.75,10.0,ESE,3.5,-,N/A,,Scattered Clouds,110,2013-05-16 00:53:00
7:25 PM,69.8,41.0,35,29.94,10.0,SW,9.2,-,N/A,Thunderstorm,Overcast,230,2013-05-16 01:25:00
7:53 PM,61.0,46.9,60,29.80,10.0,SE,26.5,31.1,0.01,Rain-Thunderstorm,Light Thunderstorms and Rain,130,2013-05-16 01:53:00
8:36 PM,57.2,46.4,67,29.98,10.0,East,6.9,20.7,0.00,,Partly Cloudy,100,2013-05-16 02:36:00
8:53 PM,55.9,46.0,69,29.86,10.0,East,19.6,25.3,0.00,,Clear,90,2013-05-16 02:53:00
9:53 PM,55.0,45.0,69,29.88,10.0,SE,3.5,-,N/A,,Clear,130,2013-05-16 03:53:00
10:38 PM,53.6,46.4,77,30.04,10.0,ESE,6.9,-,N/A,Thunderstorm,Mostly Cloudy,120,2013-05-16 04:38:00
10:53 PM,53.1,46.9,80,29.92,10.0,NE,5.8,-,0.00,Rain-Thunderstorm,Light Rain,50,2013-05-16 04:53:00
11:08 PM,53.6,46.4,77,30.05,10.0,NE,15.0,-,0.00,Rain,Light Rain,40,2013-05-16 05:08:00
11:41 PM,55.4,46.4,72,30.00,10.0,East,15.0,39.1,0.00,Rain,Light Rain,80,2013-05-16 05:41:00
11:49 PM,55.4,46.4,72,30.01,10.0,SSW,17.3,26.5,0.00,,Scattered Clouds,200,2013-05-16 05:49:00
11:53 PM,55.0,46.0,72,29.84,10.0,South,13.8,26.5,0.00,,Partly Cloudy,180,2013-05-16 05:53:00